DateTime,F1_A11,F1_S11,BsB_S11,BsG_S11,BsR_S11,BbsB_S11,BbsG_S11,BbsR_S11,BaB_A11,BaG_A11,BaR_A11,T_S11,U_S11,P_S11,T1_A11
2016-10-20T00:00:00Z,0000380,21000600,,,,,,,,,,28.3,00.8,0645.7,34.8
2016-10-20T00:01:00Z,0000380,21000600,,,,,,,,,,28.3,00.8,0645.7,34.8
2016-10-20T00:02:00Z,0000380,21000600,,,,,,,,,,28.3,00.8,0645.7,34.8
2016-10-20T00:03:00Z,0000380,61000600,,,,,,,,,,28.3,00.8,0645.7,34.8
2016-10-20T00:04:00Z,0000380,41000600,0000.64,0002.33,0001.95,-000.05,0000.46,0000.49,0000.64,0000.58,0000.70,28.5,00.8,0646.7,34.8
2016-10-20T00:05:00Z,0000380,01000600,0000.33,0000.83,0001.71,-000.86,0000.07,0000.43,0000.57,0000.49,0000.40,28.4,00.6,0646.7,34.8
2016-10-20T00:06:00Z,0000380,01000600,-000.13,0001.37,0000.94,0000.21,0000.20,0000.54,0000.51,0000.55,0000.32,28.4,00.6,0646.7,34.8
2016-10-20T00:07:00Z,0000380,01000600,-000.14,0000.89,0000.96,0000.36,0000.61,0000.03,0000.02,-000.08,0000.00,28.4,00.6,0646.7,34.8
2016-10-20T00:08:00Z,0000380,01000600,0000.82,-000.22,0001.06,0000.33,0000.47,0000.35,0000.06,0000.14,0000.01,28.3,00.5,0646.7,34.8
2016-10-20T00:09:00Z,0000380,01000600,0000.28,0000.25,0000.89,0000.28,0000.07,0000.18,0000.14,0000.03,-000.14,28.3,00.5,0646.7,34.8
2016-10-20T00:10:00Z,0000380,01000600,0000.14,0000.41,0001.14,-000.02,0000.44,0000.71,0000.38,0000.30,0000.45,28.4,00.5,0646.7,34.8
2016-10-20T00:11:00Z,0000380,01000600,-000.77,0000.46,0000.61,0000.33,0000.34,0000.18,0000.43,0000.32,0000.20,28.4,00.5,0646.6,34.8
2016-10-20T00:12:00Z,0000380,01000600,-000.46,0000.50,0000.71,0000.51,0000.05,-000.33,0000.22,0000.13,0000.03,28.4,00.5,0646.6,34.8
2016-10-20T00:13:00Z,0000380,01000600,-000.90,0000.64,0000.55,0000.21,-000.16,0000.21,0000.42,0000.36,0000.49,28.4,00.5,0646.7,34.8
2016-10-20T00:14:00Z,0000380,01000600,-000.51,0000.32,0000.37,0000.21,0000.08,0000.36,0000.32,0000.22,0000.17,28.4,00.5,0646.7,34.8
2016-10-20T00:15:00Z,0000380,01000600,0001.52,0000.30,0001.16,0000.02,0000.34,-000.03,0000.13,0000.11,-000.26,28.4,00.5,0646.8,34.7
2016-10-20T00:16:00Z,0000380,01000600,0001.06,0000.57,0001.38,-000.38,0000.16,0000.36,0000.79,0000.75,0000.59,28.5,00.6,0646.8,34.7
2016-10-20T00:17:00Z,0000380,01000600,-000.05,0000.96,0000.47,-000.05,-000.05,-000.26,0000.52,0000.51,0000.41,28.5,00.6,0646.8,34.7
2016-10-20T00:18:00Z,0000380,01000600,0000.74,0001.14,0001.61,0000.20,-000.26,0000.25,0000.58,0000.64,0000.39,28.5,00.8,0646.8,34.7
2016-10-20T00:19:00Z,0000380,01000600,0000.92,0002.27,0001.75,-000.53,-000.11,0000.49,0001.05,0000.99,0000.84,28.5,00.8,0646.8,34.7
2016-10-20T00:20:00Z,0000380,01000600,0001.95,0001.95,0003.08,0000.13,-000.07,0000.91,0001.14,0001.05,0000.89,28.5,00.9,0646.8,34.7
2016-10-20T00:21:00Z,0000380,01000600,0000.74,0001.05,0002.17,0000.21,0000.08,0000.16,0000.32,0000.37,0000.13,28.5,00.9,0646.7,34.7
2016-10-20T00:22:00Z,0000380,01000600,0000.37,0001.66,0001.08,-000.20,-000.02,-000.03,0000.91,0000.49,0000.70,28.5,00.8,0646.8,34.7
2016-10-20T00:23:00Z,0000380,01000600,0001.41,0002.93,0001.94,0000.54,0000.62,0000.49,0000.19,0000.35,0000.11,28.5,00.9,0646.7,34.7
2016-10-20T00:24:00Z,0000380,01000600,0001.11,0002.08,0001.94,0000.66,0000.44,0000.87,0000.74,0000.49,0000.33,28.4,00.8,0646.6,34.7
2016-10-20T00:25:00Z,0000380,01010600,0001.65,0001.33,0002.93,0000.76,0000.64,0000.72,0001.04,0001.07,0000.72,28.5,00.9,0646.7,34.7
2016-10-20T00:26:00Z,0000380,01000600,0001.93,0002.41,0002.67,0000.08,0000.05,0000.63,0000.80,0000.55,0000.64,28.5,00.9,0646.6,34.7
2016-10-20T00:27:00Z,0000380,01000600,0001.83,0001.87,0002.42,-000.12,0000.11,0000.26,0000.66,0000.63,0000.62,28.5,00.9,0646.5,34.7
2016-10-20T00:28:00Z,0000380,01000600,0000.46,0001.77,0001.81,-000.39,0000.66,0000.43,0000.49,0000.53,-000.07,28.5,01.0,0646.6,34.7
2016-10-20T00:29:00Z,0000380,01000600,0000.61,0002.08,0002.33,0000.18,0000.41,0000.31,0000.88,0000.70,0000.66,28.5,00.9,0646.7,34.7
2016-10-20T00:30:00Z,0000380,01000600,0000.79,0002.15,0003.28,0000.03,0000.10,0000.66,0001.38,0001.22,0000.71,28.5,01.1,0646.6,34.7
2016-10-20T00:31:00Z,0000380,01000600,0001.78,0003.45,0004.16,0000.79,0000.66,0000.72,0001.77,0001.78,0001.13,28.5,01.2,0646.6,34.7
2016-10-20T00:32:00Z,0000380,00000600,0003.84,0005.91,0005.50,-000.15,0000.05,0001.09,0002.11,0001.60,0001.44,28.5,01.5,0646.6,34.7
2016-10-20T00:33:00Z,0000380,01000600,0001.83,0003.11,0003.85,0000.94,0000.85,0001.00,0001.28,0001.01,0000.70,28.5,01.4,0646.6,34.7
2016-10-20T00:34:00Z,0000380,01000600,0001.12,0002.86,0002.46,0000.12,0000.57,0000.33,0000.53,0000.70,0000.70,28.5,01.4,0646.5,34.7
2016-10-20T00:35:00Z,0000380,01000600,0002.45,0001.80,0003.55,0000.63,0000.20,0000.21,0001.22,0001.00,0000.58,28.5,01.2,0646.6,34.7
2016-10-20T00:36:00Z,0000380,01000600,0001.76,0002.18,0003.12,0000.41,0000.31,0000.49,0000.89,0000.79,0000.52,28.5,01.2,0646.5,34.7
2016-10-20T00:37:00Z,0000380,01000600,0001.97,0001.81,0002.80,0000.44,0000.26,0000.51,0000.73,0000.72,0000.50,28.6,01.1,0646.5,34.7
2016-10-20T00:38:00Z,0000380,01000600,0000.78,0001.71,0001.87,-000.33,-000.08,-000.12,0000.19,0000.18,-000.06,28.6,00.9,0646.5,34.7
2016-10-20T00:39:00Z,0000380,01000600,0000.78,0001.19,0002.22,0000.23,0000.44,0000.15,0000.66,0000.34,0000.71,28.6,00.9,0646.5,34.7
2016-10-20T00:40:00Z,0000380,01000600,0002.52,0002.08,0001.43,-000.71,0000.64,0000.35,0000.56,0000.46,0000.45,28.6,00.8,0646.5,34.7
2016-10-20T00:41:00Z,0000380,01000600,0001.28,0001.82,0002.13,0000.16,0000.33,-000.07,0000.87,0000.68,0000.64,28.6,00.7,0646.6,34.7
2016-10-20T00:42:00Z,0000380,01000600,0001.75,0001.71,0002.22,0000.08,-000.13,0000.15,0000.83,0000.71,0000.08,28.6,00.8,0646.6,34.7
2016-10-20T00:43:00Z,0000380,01000600,0000.07,0002.43,0001.93,-000.21,0000.39,0000.25,0000.39,0000.31,0000.35,28.7,00.8,0646.6,34.7
2016-10-20T00:44:00Z,0000380,01000600,-001.27,0001.04,0001.18,-000.25,0000.52,0000.12,0000.45,0000.67,0000.65,28.6,00.8,0646.6,34.7
2016-10-20T00:45:00Z,0000380,01000600,0001.08,0001.60,0001.05,-000.13,0000.33,0000.15,0000.66,0000.58,0000.65,28.7,00.8,0646.6,34.7
2016-10-20T00:46:00Z,0000380,01000600,0001.31,0001.54,0001.08,0000.94,0000.08,-000.25,0001.05,0000.78,0000.33,28.7,00.7,0646.7,34.7
2016-10-20T00:47:00Z,0000380,01000600,0001.90,0002.18,0003.37,0000.53,0000.15,0000.49,0001.00,0000.87,0000.70,28.7,00.9,0646.6,34.7
2016-10-20T00:48:00Z,0000380,01000600,0001.01,0001.17,0002.26,0000.30,0000.20,0000.10,0000.19,0000.49,0000.16,28.7,00.9,0646.6,34.7
2016-10-20T00:49:00Z,0000380,01000600,0001.39,0001.90,0002.11,-000.35,0000.67,0000.33,0000.93,0000.47,0000.57,28.8,00.8,0646.7,34.7
2016-10-20T00:50:00Z,0000380,01000600,0000.83,0000.55,0001.44,0000.21,0000.34,-000.08,0000.33,0000.37,0000.05,28.7,00.8,0646.8,34.7
2016-10-20T00:51:00Z,0000380,01000600,0000.35,0001.25,0001.02,-000.46,0000.28,-000.10,0000.22,0000.29,0000.29,28.7,00.7,0646.8,34.7
2016-10-20T00:52:00Z,0000380,01000600,-000.41,0001.31,0000.69,0000.02,-000.08,0000.18,0000.48,0000.14,0000.25,28.7,00.6,0646.8,34.7
2016-10-20T00:53:00Z,0000380,01000600,0000.57,0001.11,0001.16,0000.26,0000.30,-000.21,0000.18,0000.37,-000.03,28.7,00.6,0646.8,34.7
2016-10-20T00:54:00Z,0000380,01000600,0001.05,0000.42,0001.23,0000.59,0000.54,-000.03,0000.63,0000.68,0000.84,28.7,00.8,0646.7,34.7
2016-10-20T00:55:00Z,0000380,01000600,0000.88,0001.89,0003.43,0000.13,0000.54,0000.56,0001.47,0001.14,0000.72,28.7,01.0,0646.8,34.7
2016-10-20T00:56:00Z,0000380,01000600,0003.08,0004.37,0005.16,0001.14,0000.61,0000.48,0002.27,0002.16,0001.52,28.7,01.3,0646.4,34.7
2016-10-20T00:57:00Z,0000380,40000600,,,,,,,,,,,,0646.8,34.7
2016-10-20T00:58:00Z,0000380,60000600,,,,,,,,,,28.6,01.8,0645.5,34.7
2016-10-20T00:59:00Z,0000380,20000600,,,,,,,,,,28.5,01.7,0645.5,34.7
2016-10-20T01:00:00Z,0000380,20000600,,,,,,,,,,28.5,01.6,0645.6,34.7
2016-10-20T01:01:00Z,0000380,20000600,,,,,,,,,,28.6,01.5,0645.6,34.7
2016-10-20T01:02:00Z,0000380,20000600,,,,,,,,,,28.7,01.5,0645.6,34.7
2016-10-20T01:03:00Z,0000380,60000600,,,,,,,,,,28.7,01.5,0645.6,34.7
2016-10-20T01:04:00Z,0000380,41000600,0000.70,0002.35,0002.11,0000.61,0000.51,0000.45,0000.25,0000.36,-000.16,28.8,01.1,0646.6,34.7
2016-10-20T01:05:00Z,0000380,01000600,0000.00,0002.00,0001.22,0000.07,-000.25,0000.08,0000.33,0000.20,0000.42,28.8,00.7,0646.6,34.7
2016-10-20T01:06:00Z,0000380,01000600,-000.64,0001.40,0000.92,0000.08,-000.07,0000.16,0000.53,0000.48,0000.50,28.8,00.7,0646.5,34.7
2016-10-20T01:07:00Z,0000380,01000600,0000.50,0000.94,0000.55,0000.72,-000.03,0000.03,0000.32,0000.34,0000.26,28.8,00.7,0646.5,34.7
2016-10-20T01:08:00Z,0000380,01000600,-000.68,0001.00,0001.28,0000.05,0000.03,0000.16,0000.48,0000.22,0000.41,28.7,00.7,0646.5,34.7
2016-10-20T01:09:00Z,0000380,01000600,-000.55,0001.02,0001.17,0000.35,-000.10,0000.36,0000.45,0000.46,0000.10,28.7,00.7,0646.5,34.7
2016-10-20T01:10:00Z,0000380,01000600,-000.14,0001.09,0000.81,0000.54,0000.07,-000.02,0000.40,0000.20,0000.16,28.7,00.7,0646.4,34.7
2016-10-20T01:11:00Z,0000380,01000600,-000.71,0000.58,0000.92,0000.05,-000.15,0000.23,0000.17,0000.31,0000.13,28.7,00.7,0646.4,34.7
2016-10-20T01:12:00Z,0000380,01000600,0000.79,0000.37,0000.69,0000.03,0000.08,-000.21,0000.47,0000.22,0000.35,28.7,00.6,0646.4,34.7
2016-10-20T01:13:00Z,0000380,01000600,0001.34,0001.09,0000.48,0000.51,-000.57,-000.25,0000.22,0000.37,0000.04,28.8,00.6,0646.5,34.7
2016-10-20T01:14:00Z,0000380,01000600,0001.59,0000.37,0000.77,0000.35,-000.07,0000.36,0000.24,0000.08,0000.09,28.8,00.5,0646.5,34.7
2016-10-20T01:15:00Z,0000380,01000600,0000.09,0000.63,0000.83,0000.38,-000.33,-000.12,0000.31,0000.34,0000.15,28.8,00.6,0646.5,34.7
2016-10-20T01:16:00Z,0000380,01000600,-000.50,0001.14,0000.44,0000.30,-000.03,-000.10,0000.38,0000.38,0000.54,28.8,00.6,0646.5,34.7
2016-10-20T01:17:00Z,0000380,01000600,0001.44,0001.66,0001.67,0000.07,-000.05,0000.21,0001.15,0001.00,0000.50,28.8,00.8,0646.5,34.7
2016-10-20T01:18:00Z,0000380,01000600,0001.50,0002.22,0001.65,0000.31,0000.16,-000.10,0000.67,0000.64,0000.47,28.8,00.8,0646.5,34.7
2016-10-20T01:19:00Z,0000380,01000600,0000.42,0002.00,0002.38,0000.61,0000.52,0000.78,0001.44,0001.23,0000.98,28.8,01.0,0646.6,34.7
2016-10-20T01:20:00Z,0000380,01000600,0000.87,0001.91,0001.69,0000.71,0000.10,0000.46,0000.56,0000.58,0000.74,28.8,00.9,0646.8,34.7
2016-10-20T01:21:00Z,0000380,01000600,0001.85,0001.42,0001.75,0001.02,0000.08,-000.02,0001.25,0001.00,0000.55,28.8,00.9,0646.7,34.7
2016-10-20T01:22:00Z,0000380,01000600,0002.50,0002.16,0002.01,0000.51,0000.51,0000.53,0000.99,0001.01,0000.78,28.8,01.1,0646.6,34.7
2016-10-20T01:23:00Z,0000380,01000600,0000.39,0001.64,0002.48,0000.26,-000.05,0000.15,0001.27,0001.05,0000.82,28.8,01.0,0646.7,34.7
2016-10-20T01:24:00Z,0000380,01000600,0002.02,0002.41,0002.27,0000.59,-000.21,0000.41,0001.37,0001.12,0001.01,28.8,01.0,0646.6,34.7
2016-10-20T01:25:00Z,0000380,01000600,0002.49,0002.80,0002.95,0000.46,-000.02,0000.25,0001.31,0001.24,0000.77,28.8,01.2,0646.7,34.7
2016-10-20T01:26:00Z,0000380,01000600,0002.83,0002.70,0003.93,0000.31,0000.72,0000.73,0001.38,0001.11,0000.95,28.8,01.4,0646.6,34.7
2016-10-20T01:27:00Z,0000380,01000600,0002.56,0002.93,0003.84,0000.49,0000.20,0001.02,0001.79,0001.65,0001.43,28.8,01.3,0646.6,34.7
2016-10-20T01:28:00Z,0000380,01000600,0003.41,0003.31,0003.50,0000.86,0000.92,0000.53,0001.16,0000.86,0000.09,28.8,01.3,0646.7,34.7
2016-10-20T01:29:00Z,0000380,01000600,0001.74,0003.38,0004.15,0000.77,0000.52,0000.54,0001.48,0001.51,0001.37,28.8,01.2,0646.6,34.7
2016-10-20T01:30:00Z,0000380,01000600,0000.27,0002.58,0002.91,0001.12,0000.20,-000.08,0001.20,0001.19,0000.49,28.8,01.2,0646.7,34.7
2016-10-20T01:31:00Z,0000380,01000600,0001.13,0002.84,0002.22,0000.99,0000.79,0000.59,0001.42,0000.74,0000.74,28.8,01.2,0646.5,34.7
2016-10-20T01:32:00Z,0000380,01000600,0001.24,0001.91,0003.64,0000.12,-000.07,0000.84,0001.58,0001.43,0001.30,28.9,01.2,0646.4,34.7
2016-10-20T01:33:00Z,0000380,01000600,0001.78,0003.67,0003.92,0000.76,0000.07,0001.06,0001.08,0001.20,0000.87,28.9,01.1,0646.3,34.7
2016-10-20T01:34:00Z,0000380,01000600,0001.90,0002.38,0002.26,-000.02,0000.25,0000.53,0001.21,0000.95,0000.58,28.9,01.2,0646.5,34.7
2016-10-20T01:35:00Z,0000380,01000600,0001.56,0001.09,0001.72,0000.28,0000.10,0001.19,0000.52,0000.40,0000.29,28.9,01.0,0646.4,34.7
2016-10-20T01:36:00Z,0000380,01000600,0000.76,0002.61,0002.17,0000.33,0000.38,0000.53,0001.09,0000.92,0000.80,28.9,01.0,0646.5,34.7
2016-10-20T01:37:00Z,0000380,01000600,0002.22,0002.11,0002.27,0000.63,0000.13,0000.43,0001.04,0000.95,0000.33,28.8,01.0,0646.5,34.7
2016-10-20T01:38:00Z,0000380,01000600,0001.00,0000.71,0001.68,0000.91,0000.23,0000.15,0000.69,0000.56,0000.86,28.8,00.9,0646.6,34.7
2016-10-20T01:39:00Z,0000380,01000600,0000.60,0000.89,0002.65,0000.77,0000.23,0000.46,0000.43,0000.29,0000.08,28.8,00.8,0646.6,34.7
2016-10-20T01:40:00Z,0000380,01000600,-000.04,0001.15,0001.37,0000.76,-000.23,0000.26,0000.11,0000.18,-000.09,28.8,00.6,0646.6,34.7
2016-10-20T01:41:00Z,0000380,01000600,0000.91,0002.15,0001.64,0000.77,-000.08,0000.18,0000.94,0000.95,0001.02,28.8,00.8,0646.5,34.7
2016-10-20T01:42:00Z,0000380,01000600,0001.15,0001.53,0001.39,0000.46,0000.28,-000.23,0000.75,0000.41,0000.36,28.8,00.8,0646.5,34.7
2016-10-20T01:43:00Z,0000380,01000600,0000.75,0001.75,0001.76,0000.43,-000.07,0000.21,0000.48,0000.43,0000.57,28.8,00.8,0646.5,34.7
2016-10-20T01:44:00Z,0000380,01000600,0000.12,0002.37,0002.00,0000.87,0000.10,0000.30,0001.09,0000.99,0000.53,28.8,00.8,0646.4,34.7
2016-10-20T01:45:00Z,0000380,01000600,0001.15,0002.32,0002.71,0000.99,0000.23,0000.51,0001.24,0001.19,0000.86,28.8,00.9,0646.5,34.7
2016-10-20T01:46:00Z,0000380,01000600,0002.70,0002.63,0002.41,0000.69,0000.13,0000.58,0000.89,0000.87,0000.79,28.8,00.9,0646.4,34.7
2016-10-20T01:47:00Z,0000380,01000600,0001.47,0002.26,0001.89,0000.40,0000.44,0000.18,0000.78,0000.54,0000.32,28.8,00.9,0646.4,34.7
2016-10-20T01:48:00Z,0000380,01000600,0001.59,0001.20,0001.37,0000.08,0000.02,-000.18,0000.92,0000.85,0000.83,28.8,00.8,0646.3,34.7
2016-10-20T01:49:00Z,0000380,01000600,0001.89,0001.99,0001.97,0000.36,-000.30,0000.48,0000.99,0000.77,0000.34,28.8,00.8,0646.3,34.7
2016-10-20T01:50:00Z,0000380,01000600,0000.16,0001.85,0001.92,0000.59,0000.25,0000.45,0000.88,0001.05,0000.41,28.8,00.9,0646.3,34.7
2016-10-20T01:51:00Z,0000380,01000600,0002.46,0002.93,0002.94,0000.91,0000.66,0000.50,0001.00,0000.79,0000.93,28.8,01.1,0646.2,34.7
2016-10-20T01:52:00Z,0000380,01000600,0000.69,0002.10,0002.65,0000.30,0000.49,0000.51,0000.90,0000.72,0000.62,28.8,01.0,0646.2,34.7
2016-10-20T01:53:00Z,0000380,01000600,0001.83,0002.23,0001.88,0000.91,0000.08,-000.18,0001.30,0001.23,0000.86,28.8,01.0,0646.3,34.7
2016-10-20T01:54:00Z,0000380,01000600,0001.68,0002.59,0002.69,-000.28,0000.76,-000.23,0000.75,0000.64,0000.27,28.8,01.0,0646.2,34.7
2016-10-20T01:55:00Z,0000380,01000600,-000.09,0001.91,0001.98,0001.10,0000.43,-000.33,0000.96,0001.00,0000.79,28.8,01.1,0646.2,34.7
2016-10-20T01:56:00Z,0000380,01000600,-000.25,0002.77,0003.06,0000.33,0000.21,0000.33,0001.28,0000.98,0001.05,28.8,01.0,0646.2,34.7
2016-10-20T01:57:00Z,0000380,40000600,,,,,,,,,,,,0646.2,34.7
2016-10-20T01:58:00Z,0000380,61000600,,,,,,,,,,28.7,01.0,0645.1,34.7
2016-10-20T01:59:00Z,0000380,20000600,,,,,,,,,,28.7,01.1,0645.1,34.7
2016-10-20T02:00:00Z,0000380,20000600,,,,,,,,,,28.7,01.1,0645.1,34.7
2016-10-20T02:01:00Z,0000380,20000600,,,,,,,,,,28.7,01.1,0645.1,34.7
2016-10-20T02:02:00Z,0000380,20000600,,,,,,,,,,28.7,01.1,0645.0,34.7
2016-10-20T02:03:00Z,0000380,60000600,,,,,,,,,,28.7,01.1,0645.0,34.7
2016-10-20T02:04:00Z,0000380,41000600,0002.54,0002.32,0002.63,0000.33,0000.67,0000.05,0000.78,0000.87,0000.84,28.8,01.2,0645.9,34.7
2016-10-20T02:05:00Z,0000380,01000600,0002.19,0002.22,0002.55,0000.18,0000.31,0000.25,0000.86,0000.61,0000.40,28.8,01.2,0646.0,34.7
2016-10-20T02:06:00Z,0000380,01000600,0001.81,0002.19,0002.60,0000.81,0000.48,0000.35,0000.81,0000.69,0000.47,28.8,01.1,0645.9,34.7
2016-10-20T02:07:00Z,0000380,01000600,0002.04,0003.13,0002.40,0000.31,0000.66,0000.45,0001.19,0001.06,0000.89,28.8,01.0,0645.9,34.7
2016-10-20T02:08:00Z,0000380,01000600,0001.24,0002.62,0002.88,-000.77,0000.28,0000.20,0001.27,0001.30,0000.76,28.8,01.0,0646.0,34.7
2016-10-20T02:09:00Z,0000380,01000600,0002.60,0002.73,0003.13,0000.69,0000.82,0000.36,0001.13,0001.03,0001.02,28.8,01.2,0645.9,34.7
2016-10-20T02:10:00Z,0000380,01000600,0001.91,0003.26,0003.59,-000.20,0000.33,0000.36,0001.56,0001.38,0000.72,28.8,01.3,0645.8,34.7
2016-10-20T02:11:00Z,0000380,01000600,0000.82,0002.89,0002.21,0000.74,0000.41,0000.12,0000.82,0000.74,0000.83,28.8,01.4,0645.9,34.7
2016-10-20T02:12:00Z,0000380,01000600,0002.14,0002.33,0002.57,0000.58,0000.49,0000.69,0001.06,0000.89,0000.76,28.8,01.2,0646.0,34.7
2016-10-20T02:13:00Z,0000380,01000600,0002.20,0002.56,0002.50,0000.59,0000.41,0000.31,0000.95,0000.70,0000.38,28.7,01.3,0645.9,34.7
2016-10-20T02:14:00Z,0000380,01000600,0001.82,0002.54,0003.46,0000.74,0000.49,0000.91,0001.18,0001.16,0000.82,28.7,01.3,0645.9,34.7
2016-10-20T02:15:00Z,0000380,01000600,0002.26,0002.52,0003.29,0000.87,0000.02,0000.36,0000.89,0000.85,0000.67,28.7,01.2,0645.9,34.7
2016-10-20T02:16:00Z,0000380,01000600,0001.64,0001.98,0002.39,0000.23,-000.08,0000.08,0000.88,0000.70,0000.57,28.7,01.1,0645.7,34.7
2016-10-20T02:17:00Z,0000380,01000600,0002.25,0002.33,0002.34,0000.02,0001.18,0001.16,0000.90,0000.70,0000.55,28.7,01.0,0645.9,34.7
2016-10-20T02:18:00Z,0000380,01000600,0001.52,0001.92,0003.26,0000.41,0000.31,0001.04,0001.39,0001.18,0000.90,28.7,01.1,0645.9,34.7
2016-10-20T02:19:00Z,0000380,01000600,0001.26,0002.22,0002.65,0000.54,0000.31,0000.78,0000.75,0000.55,0000.24,28.7,01.2,0645.8,34.7
2016-10-20T02:20:00Z,0000380,01000600,0001.55,0001.71,0003.28,-000.21,0000.31,0000.18,0000.82,0000.89,0000.85,28.7,01.1,0645.8,34.7
2016-10-20T02:21:00Z,0000380,01000600,0002.22,0001.66,0002.32,0000.86,0000.20,0000.07,0000.53,0000.50,0000.23,28.7,01.2,0645.9,34.7
2016-10-20T02:22:00Z,0000380,01000600,0001.58,0001.73,0002.91,0000.13,0000.03,0000.10,0000.51,0000.50,0000.32,28.7,01.1,0645.8,34.7
2016-10-20T02:23:00Z,0000380,01000600,0001.19,0002.37,0002.49,0000.18,0000.57,0000.07,0000.98,0001.02,0000.78,28.7,01.1,0645.9,34.7
2016-10-20T02:24:00Z,0000380,01000600,0001.89,0002.50,0002.58,-000.10,0000.64,0000.31,0000.85,0000.61,0000.54,28.7,01.1,0645.9,34.7
2016-10-20T02:25:00Z,0000380,01000600,0000.84,0002.51,0002.32,0000.82,0000.20,0000.23,0000.82,0000.76,0000.77,28.7,01.1,0645.8,34.7
2016-10-20T02:26:00Z,0000380,01000600,0001.84,0002.62,0003.52,0000.58,0000.15,0000.68,0001.13,0000.93,0000.89,28.6,01.0,0645.8,34.7
2016-10-20T02:27:00Z,0000380,01000600,0002.26,0002.48,0002.42,0000.53,0000.26,0000.31,0001.13,0001.00,0000.43,28.7,01.1,0645.9,34.7
2016-10-20T02:28:00Z,0000380,01000600,0001.81,0001.99,0002.26,0000.20,0000.03,0000.58,0000.84,0000.77,0000.44,28.7,01.1,0645.9,34.7
2016-10-20T02:29:00Z,0000380,01000600,0003.04,0002.32,0002.25,0000.48,0000.39,-000.05,0001.02,0000.90,0000.79,28.7,01.1,0645.7,34.7
2016-10-20T02:30:00Z,0000380,01000600,0001.76,0002.78,0003.20,-000.03,0000.38,0000.68,0001.48,0001.48,0000.98,28.6,01.2,0645.8,34.7
2016-10-20T02:31:00Z,0000380,01000600,0001.12,0002.60,0003.53,0000.76,0000.74,0000.76,0001.17,0000.64,0000.74,28.6,01.1,0645.8,34.7
2016-10-20T02:32:00Z,0000380,01000600,0002.27,0003.65,0004.79,0000.69,0001.07,0000.38,0001.99,0002.09,0001.35,28.6,01.2,0645.7,34.7
2016-10-20T02:33:00Z,0000380,00000600,0003.11,0006.11,0005.57,0001.06,0001.00,0000.51,0002.04,0001.82,0001.43,28.6,01.9,0645.7,34.7
2016-10-20T02:34:00Z,0000380,00000600,0003.62,0004.86,0006.46,0000.73,0001.21,0001.27,0001.74,0001.63,0001.32,28.6,01.9,0645.8,34.7
2016-10-20T02:35:00Z,0000380,00000600,0003.52,0003.77,0004.14,-000.20,0000.79,0000.86,0001.06,0000.57,0000.53,28.6,01.6,0645.6,34.7
2016-10-20T02:36:00Z,0000380,01000600,0001.55,0002.10,0003.23,0000.59,0000.62,0000.25,0001.28,0001.30,0000.75,28.6,01.2,0645.7,34.7
2016-10-20T02:37:00Z,0000380,01000600,0001.63,0001.91,0003.03,-000.36,0000.23,0000.46,0000.74,0000.57,0000.58,28.6,01.2,0645.6,34.7
2016-10-20T02:38:00Z,0000380,01000600,0001.06,0001.95,0002.94,0000.15,0000.82,0000.36,0000.92,0000.88,0000.55,28.6,01.1,0645.6,34.7
2016-10-20T02:39:00Z,0000380,01000600,0001.78,0002.51,0002.90,-000.03,0000.66,0000.63,0000.93,0000.70,0000.37,28.5,01.1,0645.7,34.7
2016-10-20T02:40:00Z,0000380,01000600,0001.73,0001.75,0003.01,0000.71,0000.41,0000.54,0000.20,0000.29,0000.30,28.5,01.0,0645.7,34.7
2016-10-20T02:41:00Z,0000380,01000600,0001.29,0002.12,0002.91,0000.48,0000.15,0000.26,0000.99,0000.79,0000.43,28.5,01.0,0645.6,34.7
2016-10-20T02:42:00Z,0000380,01000600,0001.75,0002.01,0003.14,0000.40,0000.39,-000.02,0001.18,0000.97,0001.09,28.5,01.0,0645.6,34.7
2016-10-20T02:43:00Z,0000380,01000600,0001.32,0002.24,0002.28,0000.25,0000.82,0000.64,0000.83,0000.69,0000.31,28.5,00.9,0645.6,34.7
2016-10-20T02:44:00Z,0000380,01000600,0002.47,0002.83,0003.30,0000.31,0000.90,0000.03,0000.87,0000.83,0000.73,28.5,00.9,0645.6,34.7
2016-10-20T02:45:00Z,0000380,01000600,0000.91,0001.94,0002.37,0000.26,0000.39,0000.31,0000.83,0000.78,0000.57,28.5,01.0,0645.6,34.7
2016-10-20T02:46:00Z,0000380,01000600,0001.69,0001.93,0004.18,0000.49,0000.59,0000.91,0001.95,0001.64,0001.24,28.5,01.0,0645.7,34.7
2016-10-20T02:47:00Z,0000380,01000600,0002.41,0003.00,0003.70,0000.35,0000.30,0000.71,0001.53,0001.70,0001.24,28.5,01.3,0645.6,34.7
2016-10-20T02:48:00Z,0000380,01000600,0002.42,0003.39,0003.12,0000.89,0000.41,-000.15,0001.70,0001.35,0001.13,28.5,01.3,0645.6,34.7
2016-10-20T02:49:00Z,0000380,01000600,0002.10,0001.88,0002.14,0000.20,0001.07,0000.13,0000.56,0000.56,0000.61,28.5,01.2,0645.7,34.7
2016-10-20T02:50:00Z,0000380,01000600,0002.51,0001.88,0003.36,0000.28,0000.03,0000.69,0001.49,0001.11,0000.74,28.5,01.0,0645.6,34.7
2016-10-20T02:51:00Z,0000380,01000600,0001.42,0002.33,0003.20,0000.35,-000.02,0000.38,0000.90,0001.03,0000.66,28.5,01.1,0645.7,34.7
2016-10-20T02:52:00Z,0000380,01000600,0001.35,0002.18,0002.91,0000.63,0000.07,0000.40,0000.46,0000.34,0000.39,28.5,01.1,0645.7,34.7
2016-10-20T02:53:00Z,0000380,01000600,0001.15,0001.07,0001.73,0000.40,0000.39,0000.15,0000.55,0000.40,0000.30,28.5,00.9,0645.6,34.7
2016-10-20T02:54:00Z,0000380,01000600,0000.66,0001.31,0000.74,-000.03,0000.15,0000.05,0000.44,0000.18,0000.13,28.5,00.8,0645.6,34.7
2016-10-20T02:55:00Z,0000380,01000600,0001.40,0001.27,0000.81,0000.56,0000.16,0000.13,0000.32,0000.48,0000.20,28.5,00.7,0645.6,34.7
2016-10-20T02:56:00Z,0000380,01000600,0000.39,0000.16,0000.40,0000.46,0000.26,0000.03,0000.31,0000.14,-000.07,28.5,00.7,0645.6,34.7
2016-10-20T02:57:00Z,0000380,41000600,,,,,,,,,,,,0645.6,34.7
2016-10-20T02:58:00Z,0000380,61000600,,,,,,,,,,28.3,01.0,0644.7,34.7
2016-10-20T02:59:00Z,0000380,21000600,,,,,,,,,,28.3,00.8,0644.6,34.7
2016-10-20T03:00:00Z,0000380,21000600,,,,,,,,,,28.3,00.8,0644.6,34.8
2016-10-20T03:01:00Z,0000380,21000600,,,,,,,,,,28.3,00.8,0644.6,34.8
2016-10-20T03:02:00Z,0000380,21000600,,,,,,,,,,28.3,00.8,0644.6,34.8
2016-10-20T03:03:00Z,0000380,61000600,,,,,,,,,,28.4,00.8,0644.6,34.8
2016-10-20T03:04:00Z,0000380,41000600,0000.47,0002.16,0002.75,0000.51,0000.00,-000.03,,,,28.5,01.0,0645.4,34.8
2016-10-20T03:05:00Z,0000380,01000600,0001.31,0002.17,0002.95,0000.25,0000.03,0000.46,,,,28.5,01.0,0645.5,34.8
2016-10-20T03:06:00Z,0000380,01000600,0000.33,0001.86,0002.89,0000.26,0000.10,0000.54,,,,28.5,01.0,0645.6,34.8
2016-10-20T03:07:00Z,0000380,01000600,0000.36,0002.12,0002.59,-000.30,0000.43,0000.30,,,,28.5,01.1,0645.6,34.8
2016-10-20T03:08:00Z,0000380,01000600,0002.84,0002.53,0003.77,0000.76,0000.61,0000.94,,,,28.5,01.2,0645.5,34.8
2016-10-20T03:09:00Z,0000380,01000600,0000.95,0002.52,0002.93,0000.71,0000.80,0000.64,0001.23,0000.98,0001.07,28.5,01.2,0645.5,34.8
2016-10-20T03:10:00Z,0000380,01000600,0002.30,0003.61,0003.15,-000.28,0000.25,0000.63,0001.19,0001.07,0000.66,28.5,01.3,0645.5,34.8
2016-10-20T03:11:00Z,0000380,00000600,0001.41,0003.49,0004.14,0000.64,0000.54,0000.66,0001.73,0001.71,0001.19,28.6,01.4,0645.5,34.8
2016-10-20T03:12:00Z,0000380,01000600,0002.32,0003.30,0003.84,0000.18,0000.77,0000.61,0000.81,0000.74,0000.55,28.5,01.3,0645.5,34.8